{"data":{"norad_id":52569,"intl_designator":"2022-051AN","name":"STARLINK-3927","alt_names":[],"object_type":"PAYLOAD","status":"ACTIVE","operator":null,"country":"US","launch_date":"2022-05-13","launch_site_code":"AFWTR","launch_vehicle":null,"mission":null,"orbit_class":"UNKNOWN","rcs_meters":null,"size_class":null,"mass_kg":null,"dimensions":null,"purposes":["comms"],"wikipedia_slug":null,"has_3d_model":false,"image_url":null,"decayed_at":null,"tle_current":{"epoch":"2026-09-19T18:19:30.265536Z","epoch_age_seconds":126943,"freshness":"FRESH","line1":"1 52569U 22051AN  26262.76354474  .00001553  00000+0  61787-4 0  9991","line2":"2 52569  53.1604 313.7105 0001160  70.8722 289.2405 15.31706587241079","mean_motion":15.31706587,"eccentricity":0.000116,"inclination_deg":53.1604,"raan_deg":313.7105,"arg_perigee_deg":70.8722,"mean_anomaly_deg":289.2405,"bstar":6.1787e-5,"rev_number":24107,"period_min":94.012783663768,"perigee_km":469.92589233804,"apogee_km":471.51482724551,"semimajor_km":6848.8573597918,"source":"CELESTRAK","updated_at":"2026-09-20T09:00:40.064432Z"}}}